Shelbyville, IN

12:15 PM EST on November 20, 2019 (GMT -0500)
Shelbyville Municipal

Weather History for KGEZ - September, 2019

Change the Weather History Date:

Friday, September 13, 2019

  Actual Average Record
Temperature  
Mean Temperature 78 °F 67 °F  
Max Temperature 91 °F 79 °F 91 °F (2019)
Min Temperature 65 °F 54 °F 47 °F (2015)
Degree Days  
Heating Degree Days 0 2  
Month to date heating degree days 0 11  
Since 1 July heating degree days 0 17  
Cooling Degree Days 13 3  
Month to date cooling degree days 98 59  
Year to date cooling degree days 1159 865  
Growing Degree Days 30 (Base 50)    
Moisture  
Dew Point 66 °F    
Average Humidity 69    
Maximum Humidity 90    
Minimum Humidity 47    
Precipitation  
Precipitation 0.00 in 0.13 in 0.18 in (2008)
Month to date precipitation 0.52 1.42  
Year to date precipitation 31.98 31.70  
Sea Level Pressure  
Sea Level Pressure 30.08 in    
Wind  
Wind Speed 9 mph (SSW)    
Max Wind Speed 18 mph    
Max Gust Speed 27 mph    
Visibility 9 miles    
Events      
T = Trace of Precipitation, MM = Missing Value Source: NWS Daily Summary

Daily Weather History Graph

Daily Weather History Graph

Search for Another Location

Airport or City:

Astronomy

Sep. 13, 2019 Rise Set
Actual Time 7:22 AM EDT 7:55 PM EDT
Civil Twilight 6:55 AM EDT 8:22 PM EDT
Nautical Twilight 6:23 AM EDT 8:54 PM EDT
Astronomical Twilight 5:50 AM EDT 9:26 PM EDT
Moon 8:08 PM EDT (9/13) 6:38 AM EDT (9/13)
Length of Visible Light 13h 27m
Length of Day
12h 33m
Full, 100% of the Moon is Illuminated
Sep 13
Full
Sep 14
Full
Sep 21
Last Quarter
Sep 28
New
Oct 5
First Quarter

Hourly Weather History & Observations

Time (EDT) Temp. Heat Index Dew Point Humidity Pressure Visibility Wind Dir Wind Speed Gust Speed Precip Events Conditions
12:53 AM 72.0 °F - 68.0 °F 87% 30.09 in 7.0 mi East 5.8 mph - N/A   Clear
1:53 AM 71.1 °F - 68.0 °F 90% 30.08 in 6.0 mi East 5.8 mph - N/A   Clear
2:53 AM 71.1 °F - 66.9 °F 87% 30.08 in 5.0 mi East 4.6 mph - N/A   Clear
3:53 AM 70.0 °F - 66.9 °F 90% 30.08 in 6.0 mi ESE 3.5 mph - N/A   Clear
4:53 AM 70.0 °F - 66.0 °F 87% 30.06 in 8.0 mi South 6.9 mph - N/A   Clear
5:53 AM 73.0 °F - 68.0 °F 84% 30.07 in 10.0 mi South 8.1 mph - N/A   Clear
6:53 AM 73.0 °F - 68.0 °F 84% 30.07 in 10.0 mi South 6.9 mph - N/A   Clear
7:53 AM 73.0 °F - 66.9 °F 81% 30.09 in 9.0 mi South 8.1 mph - N/A   Clear
8:53 AM 75.0 °F - 68.0 °F 79% 30.09 in 10.0 mi South 8.1 mph - N/A   Clear
9:53 AM 79.0 °F - 69.1 °F 72% 30.09 in 10.0 mi South 8.1 mph - N/A   Clear
10:53 AM 82.9 °F 87.0 °F 70.0 °F 65% 30.10 in 10.0 mi SW 11.5 mph - N/A   Clear
11:53 AM 86.0 °F 90.7 °F 70.0 °F 59% 30.09 in 10.0 mi SSW 10.4 mph - N/A   Clear
12:53 PM 88.0 °F 91.4 °F 68.0 °F 51% 30.09 in 10.0 mi SW 15.0 mph 25.3 mph N/A   Clear
1:53 PM 90.0 °F 94.5 °F 69.1 °F 50% 30.08 in 10.0 mi SSW 15.0 mph 23.0 mph N/A   Clear
2:53 PM 90.0 °F 94.5 °F 69.1 °F 50% 30.06 in 10.0 mi SSW 13.8 mph 23.0 mph N/A   Partly Cloudy
3:53 PM 91.0 °F 95.2 °F 68.0 °F 47% 30.04 in 10.0 mi SW 16.1 mph 23.0 mph N/A   Scattered Clouds
4:53 PM 87.1 °F 90.6 °F 68.0 °F 53% 30.04 in 10.0 mi WSW 15.0 mph - N/A   Partly Cloudy
5:53 PM 87.1 °F 91.3 °F 69.1 °F 55% 30.04 in 10.0 mi WSW 13.8 mph - N/A   Clear
6:53 PM 84.9 °F 90.1 °F 71.1 °F 63% 30.05 in 10.0 mi WSW 9.2 mph 18.4 mph N/A   Partly Cloudy
7:53 PM 82.0 °F 83.0 °F 62.1 °F 51% 30.06 in 10.0 mi West 11.5 mph - N/A   Clear
8:53 PM 77.0 °F - 55.9 °F 48% 30.09 in 10.0 mi WSW 6.9 mph - N/A   Clear
9:53 PM 73.0 °F - 57.0 °F 57% 30.11 in 10.0 mi West 6.9 mph - N/A   Clear
10:53 PM 72.0 °F - 57.9 °F 61% 30.12 in 10.0 mi WNW 6.9 mph - N/A   Clear
11:53 PM 69.1 °F - 59.0 °F 70% 30.15 in 10.0 mi NW 4.6 mph - N/A   Clear